EUTELSAT 117 WEST B (W*)

Last updated on Thu Sep 10 2026 00:03:26 GMT+0000 (Coordinated Universal Time)

1 41589U 16038B 26252.27729225 -.00000033 00000+0 00000+0 0 9993 2 41589 0.0383 5.6854 0000063 245.7209 79.7532 1.00271459 37506
UTC large
Height (km)
Speed (km/s)
/
Latitude / Longitude
Inclination (degrees)
Orbital Period (minutes)
Azimuth
Elevation
Range (km)
Doppler Factor

Next 0 passes for location: London (51.5072 / 0.1276)

No passes found over London.
EUTELSAT 117 WEST B (W*)